Location: Unspecified
(0.0000°N, 0.0000°E)
Time: 16:25:05
(UTC+00:00)

Courier 1B - Pass Details

Date: 19 November 2019
Orbit: 963 x 1209 km, 28.3° (Epoch: 12 December)

Event Time Altitude Azimuth Distance (km) Brightness Sun altitude
Rises 04:09:35 0° 272° (W) 3,980 - -22.5°
Reaches altitude 10° 04:13:15 10° 288° (WNW) 2,973 - -21.6°
Maximum altitude 04:18:25 20° 333° (NNW) 2,226 - -20.4°
Exits shadow 04:18:42 20° 336° (NNW) 2,225 9.0 -20.4°
Drops below altitude 10° 04:23:22 10° 19° (NNE) 2,836 9.9 -19.3°
Sets 04:26:48 0° 36° (NE) 3,743 10.8 -18.5°
